Location: Kergonan
(48.2337°N, 4.5518°W)
Time: 16:19:12
(UTC+00:00)

CZ-2C R/B - Pass Details

Date: 18 January 2020
Orbit: 640 x 705 km, 98.4° (Epoch: 18 February)

Event Time Altitude Azimuth Distance (km) Brightness Sun altitude
Rises 06:34:34 0° 152° (SSE) 3,038 7.8 -14.2°
Reaches altitude 10° 06:36:50 10° 148° (SSE) 2,117 7.0 -13.9°
Maximum altitude 06:41:21 56° 71° (ENE) 805 4.4 -13.2°
Drops below altitude 10° 06:45:49 10° 354° (N) 2,092 6.0 -12.4°
Sets 06:48:03 0° 350° (N) 2,999 6.8 -12.1°
